Location: Barry Branch
(32.0032°N, 97.7917°W)
Time: 02:37:13
(UTC+00:00)

Daily predictions for brighter satellites

Satellite Brightness Start Highest point End
(mag) Time Altitude Azimuth Time Altitude Azimuth Time Altitude Azimuth
Cosmos 2233 Rocket 4.2 01:41:17 10° N 01:47:38 86° W 01:53:56 10° S
Resurs 01 Rocket 2.9 01:46:56 10° SE 01:50:28 24° ENE 01:54:01 10° NNE
Cosmos 1602 4.0 01:51:03 10° NNW 01:54:35 64° W 01:58:07 10° S
Cosmos 2237 Rocket 3.5 01:50:33 10° SW 01:55:59 46° WNW 02:01:27 10° N
SL-24 R/B - RUBIN 2 4.4 01:50:55 10° SSW 01:56:42 84° ESE 02:03:11 10° NNE
Cosmos 1782 2.9 01:56:07 10° S 01:59:47 50° E 02:03:29 10° NNE
BREEZE-M DEB (TANK) 4.2 01:57:56 10° W 02:00:47 38° NNW 02:05:07 10° NE
Meteor 2-14 Rocket 4.4 01:58:49 10° S 02:04:56 78° E 02:11:05 10° N
OAO 2 Rocket 3.7 01:59:42 10° WNW 02:04:59 67° N 02:10:13 10° E
H-2A R/B 0.3 02:03:34 10° SW 02:05:31 28° S 02:06:29 15° ESE
Okean O Rocket 2.6 02:02:12 10° SE 02:06:02 30° ENE 02:09:53 10° NNE
Cosmos-2242 2.9 02:02:52 10° S 02:07:03 79° E 02:11:16 10° N
USA 290 4.4 02:11:25 10° NE 02:13:01 13° ENE 02:14:20 11° E
Aureole 2 3.9 02:13:42 10° N 02:16:33 68° ENE 02:19:09 13° SSE
Feng Yun 1-1 Rocket 4.5 02:13:56 10° SSE 02:19:44 65° ENE 02:25:36 10° N
Resurs 1-3 4.4 02:15:49 10° S 02:20:01 51° W 02:24:15 10° NNW
Cosmos 972 4.4 02:17:45 10° SSW 02:22:41 82° WNW 02:27:36 10° NNE
DELTA 2 DEB (DPAF) 4.0 02:19:26 10° NNE 02:23:41 88° ESE 02:27:53 10° SSW
SL-8 R/B 4.3 02:21:03 10° WSW 02:25:44 61° NW 02:30:27 10° NE
Cosmos 1943 Rocket 2.2 02:21:03 10° NNW 02:26:43 76° ENE 02:31:46 13° SSE
SPOT 1/Viking Rocket 4.0 02:22:42 10° S 02:27:48 64° W 02:32:55 10° NNW
FALCON 9 R/B 2.7 02:33:00 10° W 02:36:55 71° N 02:48:58 10° E
Cosmos 192 4.4 02:32:31 10° NNW 02:37:28 82° WSW 02:41:48 13° SSE
Cosmos 2221 2.9 02:36:34 17° SSE 02:39:29 42° E 02:43:34 10° NNE
CZ-4B R/B 3.4 02:36:08 10° S 02:41:29 68° WSW 02:46:46 10° NNW
ATLAS 3B R/B 3.4 02:36:27 10° NNW 02:44:01 49° NE 02:48:59 21° ESE
USA 186 3.2 02:42:45 10° SSW 02:45:38 35° W 02:48:35 10° NNW
Okean-O 3.1 02:43:48 25° SE 02:45:53 42° ENE 02:50:03 10° N
Centaur D AC-29 2.6 02:42:26 10° SW 02:46:17 39° SSE 02:57:12 10° E
Cosmos 2278 Rocket 3.5 02:41:36 10° NW 02:46:47 38° WSW 02:51:55 10° S
Cosmos 1464 Rocket 4.0 02:41:21 10° N 02:47:38 87° E 02:53:29 12° S
MOS 1-B 4.5 02:42:25 10° S 02:48:10 76° WSW 02:53:57 10° NNW
ATLAS 5 CENTAUR R/B 4.1 02:43:40 10° WNW 02:48:32 28° WSW 02:54:06 10° S
CZ-4C R/B 3.2 02:46:10 10° NNE 02:50:01 68° ESE 02:53:10 16° S
CARTOSAT-1 3.7 02:46:39 14° S 02:50:15 70° W 02:54:30 10° NNW
Meteor 1-26 Rocket 4.4 02:50:36 10° S 02:56:37 85° W 03:02:41 10° N
Cosmos 921 Rocket 2.9 02:53:26 10° S 02:57:52 81° ESE 03:02:21 10° NNE
OAO 3 Copernicus 4.2 02:55:34 10° WNW 03:00:38 86° SSW 03:02:55 33° ESE
Cosmos 1371 Rocket 4.5 02:55:35 10° N 03:00:43 45° ENE 03:02:41 32° ESE
Cosmos 1378 4.3 03:00:36 10° SSW 03:03:37 36° W 03:06:41 10° NNW
Lacrosse 5 2.1 02:58:38 10° NNW 03:03:39 57° NE 03:05:39 34° ESE
MOS 1 4.3 03:01:42 28° SE 03:04:40 63° ENE 03:10:15 10° N
Cosmos 1420 Rocket 4.0 03:03:52 10° N 03:09:10 68° ENE 03:11:13 37° SE
OAO 1 4.4 03:04:39 10° WSW 03:10:07 71° SSE 03:13:34 23° E
Terra 2.9 03:11:35 26° E 03:12:01 26° ENE 03:15:54 10° NNE
SL-16 R/B 3.9 03:10:33 10° SW 03:15:37 33° WNW 03:20:43 10° N
Cosmos 1603 4.1 03:17:42 39° ESE 03:18:16 40° ESE 03:23:32 10° NE
IRS-1A Rocket 4.5 03:16:28 38° SE 03:18:19 54° ENE 03:23:44 10° N
USA 308 4.0 03:16:49 10° WNW 03:19:16 22° SW 03:19:19 22° SW
Cosmos 1743 3.2 03:16:13 10° N 03:19:07 41° NE 03:19:07 41° NE
Meteor 2-6 Rocket 4.1 03:16:48 27° S 03:20:00 76° E 03:25:32 10° NNE
Spot 2 Rocket 4.4 03:20:07 29° E 03:20:35 30° ENE 03:24:55 10° N
Cosmos 1634 Rocket 4.2 03:15:30 10° N 03:21:36 52° E 03:23:25 40° SE
GEOS 3 Rocket 3.4 03:16:35 10° NE 03:21:41 66° ESE 03:26:04 14° SSW
SPOT 5 2.7 03:21:11 51° SE 03:22:15 71° ENE 03:26:44 10° N
SeaSat 1 4.4 03:20:33 10° SSW 03:24:17 22° WSW 03:28:03 10° WNW
Resurs 01 Rocket 3.7 03:23:14 10° SSW 03:26:45 23° W 03:30:18 10° NW
NOSS 3-1 (A) 4.3 03:22:28 10° NNW 03:30:32 80° WSW 03:35:18 33° SSE
Gbstr 26 Del rocket 4.4 03:26:13 10° WNW 03:31:26 35° SW 03:32:46 30° SSW
Cosmos 2369 Rocket 2.4 03:28:12 10° N 03:33:37 51° ENE 03:34:31 46° E
Cosmos 2034 Rocket 4.5 03:27:33 10° NNW 03:33:39 58° W 03:37:42 22° SSW
Cosmos 1726 4.4 03:36:13 10° NNE 03:36:42 13° NNE 03:36:42 13° NNE
Cosmos 1842 Rocket 3.4 03:40:11 80° SSW 03:40:25 89° W 03:44:52 10° N
Okean 3 Rocket 4.1 03:36:18 10° N 03:39:52 44° NE 03:39:52 44° NE
Okean O Rocket 4.0 03:39:10 10° SW 03:42:16 19° W 03:45:23 10° NW
Ariane Rocket 3.3 03:43:07 49° ENE 03:43:11 49° ENE 03:48:04 10° N
USA 32 4.5 03:42:11 30° SSW 03:44:38 58° W 03:49:47 10° N
BREEZE-M DEB (TANK) 4.5 03:18:25 10° SW 03:44:57 87° NW 03:50:00 10° NE
USA 229 DEB 4.4 03:38:30 10° NNW 03:45:59 52° ENE 03:48:32 40° ESE
USA 229 4.4 03:38:37 10° NNW 03:46:05 52° ENE 03:48:38 39° ESE
ARGOS Delta rocket 3.8 03:46:25 72° SE 03:46:54 82° E 03:51:52 10° N
OAO 2 Rocket 3.5 03:44:34 10° WNW 03:49:36 61° SSW 03:49:36 61° SSW
Meteor 1-27 Rocket 4.2 03:51:15 43° ENE 03:51:15 43° ENE 03:55:44 10° NNE
Cosmos 1656 Rocket 3.5 03:45:06 10° NNW 03:50:35 83° WSW 03:51:20 67° S
Cosmos 468 4.5 03:54:01 59° SW 03:55:00 79° WNW 04:00:13 10° NNE
Cosmos 1943 3.8 03:49:51 10° SW 03:55:20 54° WNW 04:00:54 10° N
Cosmos 2056 Rocket 4.1 03:51:31 10° NNW 03:56:40 49° WSW 03:57:40 43° SW
Aureole 3 Rocket 4.4 03:53:46 10° NNW 03:58:08 45° W 04:00:10 32° SW
Cosmos 1452 Rocket 4.2 03:55:40 10° N 04:00:07 42° NE 04:00:07 42° NE
Cosmos 2142 Rocket 4.5 03:56:54 10° N 04:03:13 66° E 04:03:39 64° ESE
Cosmos 44 4.1 04:04:15 10° NW 04:08:06 40° W 04:08:06 40° W
ERS-1 Rocket 3.5 04:15:22 51° W 04:15:23 51° W 04:20:17 10° NNW
USA 59 Rocket 2.8 04:29:35 10° NNE 04:30:55 12° NE 04:30:55 12° NE
MOS 1 Rocket 4.1 04:34:16 52° WNW 04:34:16 52° WNW 04:38:33 10° NNW
ATLAS 3B R/B 4.0 04:27:48 10° NW 04:34:28 32° WSW 04:36:15 29° SW
USA 281 3.1 04:36:16 78° ENE 04:36:16 78° ENE 04:42:51 10° NNW
Lacrosse 5 4.2 04:42:59 10° WNW 04:44:52 15° W 04:44:52 15° W
Terra 3.7 04:50:17 23° W 04:50:17 23° W 04:53:17 10° NW
Meteor 1-11 Rocket 4.4 04:47:57 10° NNW 04:52:46 50° WNW 04:52:46 50° WNW
Nadezhda 4 Rocket 4.4 04:54:10 56° WNW 04:54:10 56° WNW 05:00:08 10° N
Chandra Rocket (1) 3.8 04:51:24 10° W 05:08:13 63° SW 05:08:13 63° SW
CZ-3 Stage 3 3.8 04:41:40 10° WSW 05:15:32 68° S 05:16:07 67° SSE
Cosmos 2369 Rocket 4.4 05:13:44 10° WNW 05:16:18 16° W 05:16:18 16° W
USA 267 3.7 05:47:11 10° NE 05:52:17 55° NNE 05:52:17 55° NNE
Cosmos 1697 Rocket 4.4 06:07:39 10° N 06:10:50 28° NNE 06:10:50 28° NNE
Cosmos 1980 Rocket 4.3 06:15:46 10° NNE 06:19:10 19° NE 06:19:10 19° NE
USA 59 Rocket 2.8 06:16:31 10° NW 06:17:27 17° NW 06:17:27 17° NW
Cosmos 2082 Rocket 3.7 06:54:17 34° NNE 06:54:17 34° NNE 06:57:21 10° NNE
Resurs 1-4 Rocket 4.3 07:18:09 10° NE 07:20:14 16° ENE 07:20:14 16° ENE
Cosmos 1745 Rocket 4.4 07:47:13 57° NE 07:47:13 57° NE 07:52:24 10° NNE
NOSS 3-4 (A) 4.0 07:50:03 10° NNW 07:56:34 70° WNW 07:56:34 70° WNW
NOSS 3-4 (C) 4.0 07:50:09 10° NNW 07:56:43 71° WNW 07:56:43 71° WNW
ATLAS CENTAUR R/B 3.8 07:47:40 10° NW 07:59:39 67° WSW 07:59:39 67° WSW
Cosmos 1980 Rocket 3.8 07:58:27 10° NNW 08:00:53 25° NW 08:00:53 25° NW
SJ 16-02 3.4 08:06:53 23° NE 08:06:53 23° NE 08:08:57 10° NE
USA 234 3.3 08:05:25 53° ESE 08:07:00 73° NE 08:13:32 10° NW
ADEOS II 3.4 08:03:32 10° NE 08:07:43 31° E 08:07:43 31° E
IDEFIX/ARIANE 42P 3.2 08:07:28 10° NNE 08:11:29 53° NNE 08:11:29 53° NNE
Nadezhda 1 Rocket 4.0 08:10:39 10° N 08:16:37 79° N 08:16:37 79° N
CZ-2C R/B 3.4 08:26:40 10° NNE 08:32:26 67° E 08:32:29 66° ESE
SL-16 R/B 2.6 08:29:19 10° NNW 08:34:55 60° ENE 08:36:03 50° ESE
Cosmos 968 Rocket 4.0 08:41:59 50° NNW 08:41:59 50° NNW 08:46:06 10° N
AQUA 4.2 08:39:34 10° NNE 08:43:54 56° E 08:43:54 56° E
CZ-2D R/B 2.3 08:42:47 10° N 08:47:51 62° NW 08:47:51 62° NW
CRYOSAT 2 4.5 08:43:19 10° N 08:47:45 73° NNE 08:47:45 73° NNE
Cosmos 1709 Rocket 4.2 08:48:17 54° W 08:48:17 54° W 08:54:27 10° N
BREEZE-M R/B 4.2 08:47:03 38° WNW 08:48:33 48° NNW 09:00:30 10° NE
SL-16 R/B 3.4 08:46:58 13° SE 08:52:13 46° ENE 08:58:09 10° N
Meteor 1-24 Rocket 3.9 08:51:31 61° SSE 08:52:33 76° E 08:58:34 10° NNE
OAO 3 Rocket 3.5 08:54:36 61° NNW 08:54:56 63° N 08:59:48 10° E
Cosmos 2237 4.0 08:49:36 10° NNW 08:55:20 78° WSW 08:55:27 78° WSW
Cosmos 2360 Rocket 3.3 08:51:11 10° N 08:56:32 41° ENE 09:01:51 10° SE
Cosmos 841 Rocket 4.4 08:52:53 10° NNW 08:56:15 36° NW 08:56:15 36° NW
Resurs 1-4 Rocket 2.7 08:56:41 10° N 09:01:18 42° WNW 09:01:18 42° WNW
Cosmos 2181 Rocket 4.3 08:55:22 10° N 09:01:39 64° E 09:05:00 28° SSE
Cosmos 1066 4.5 09:04:45 70° SSW 09:05:22 82° W 09:10:51 10° N
SL-4 R/B 2.5 09:06:31 59° N 09:06:31 59° N 09:10:28 10° NE
Tiangong 0.1 09:08:06 24° ENE 09:08:06 24° ENE 09:09:31 10° ENE
FENGYUN 3A 3.6 09:07:44 10° N 09:13:00 61° WNW 09:13:35 57° WSW
CZ-2C R/B 2.7 09:15:09 51° W 09:15:09 51° W 09:19:52 10° NNW
IRAS Rocket 4.1 09:10:54 10° NNE 09:16:25 90° WNW 09:17:50 52° SSW
Cosmos 2278 4.4 09:11:35 10° NW 09:15:52 37° W 09:15:52 37° W
Cosmos 2098 Rocket 3.8 09:12:35 10° N 09:18:12 90° NW 09:21:18 32° S
SL-8 R/B 3.7 09:15:13 10° NW 09:20:00 78° NE 09:24:47 10° SE
Cosmos 1674 Rocket 3.6 09:20:36 62° SSE 09:21:17 78° E 09:25:43 10° N
SL-24 R/B 4.3 09:21:52 59° WSW 09:22:15 62° W 09:27:01 10° NNW
Lacrosse 5 rocket 1.4 09:20:39 10° NNW 09:24:36 66° NE 09:28:20 10° SE
Cosmos 1814 Rocket 3.9 09:21:41 10° NNW 09:26:56 85° WSW 09:29:48 28° SSE
Okean 2 Rocket 3.8 09:22:53 10° N 09:27:10 50° E 09:30:06 19° SSE
Cosmos 2333 Rocket 2.3 09:24:51 10° NNW 09:30:35 75° ENE 09:36:19 10° SSE
Cosmos 1295 Rocket 4.3 09:30:42 33° S 09:33:40 85° W 09:39:47 10° N
Meteor 2-5 Rocket 4.2 09:32:54 39° WSW 09:34:10 44° WNW 09:39:50 10° N
Cosmos 405 Rocket 3.8 09:30:47 10° N 09:34:13 40° E 09:36:44 16° SE
Cosmos 2322 Rocket 2.1 09:28:41 10° NNW 09:34:17 66° WSW 09:37:44 24° S
Cosmos 2297 Rocket 4.2 09:31:00 10° SSE 09:35:17 23° E 09:39:36 10° NE
ATLAS CENTAUR R/B 1.4 09:36:07 47° SE 09:36:28 49° ESE 09:39:50 10° NE
Cosmos 1378 Rocket 3.7 09:38:01 49° W 09:38:19 50° W 09:42:30 10° N
Cosmos 1486 Rocket 4.2 09:36:16 30° S 09:38:47 68° ESE 09:43:57 10° NNE
ALOS 2.6 09:38:30 10° N 09:42:53 45° WNW 09:43:48 39° WSW
SJ 16-02 3.3 09:43:39 15° WNW 09:43:39 15° WNW 09:46:02 10° NNW
ADEOS II 3.3 09:43:24 10° NNW 09:47:34 25° WNW 09:48:35 23° W
Cosmos 2074 Rocket 4.2 09:47:33 31° SW 09:50:16 51° W 09:56:18 10° N
Meteor 1-28 Rocket 4.3 09:51:23 26° WNW 09:51:23 26° WNW 09:53:36 10° NW
Okean 1 Rocket 3.5 09:48:42 10° N 09:52:58 61° E 09:57:13 10° SSE
UNK 3.6 09:51:37 20° S 09:54:50 70° WSW 09:59:28 10° NNW
COSMOS 2455 4.0 09:50:48 10° S 09:56:11 38° ESE 10:01:41 10° NE
METEOR-M 4.1 09:53:14 10° N 09:58:35 78° WNW 10:02:09 22° SSW
CZ-2C R/B 2.4 09:54:42 10° NNE 09:59:24 72° ESE 10:02:58 17° S
IRS-1D 3.9 09:57:17 10° NNE 10:02:34 64° ESE 10:07:45 10° S
Envisat 3.0 09:58:15 10° N 10:03:18 68° WNW 10:06:34 22° SSW
CZ-4C R/B 3.7 10:05:18 10° SSE 10:08:23 21° ESE 10:11:49 10° ENE
Delta 2 Rocket 4.2 10:08:34 23° WSW 10:12:07 48° S 10:17:53 10° ESE
RESURS DK-1 2.4 10:08:58 10° NNW 10:12:54 49° WSW 10:16:48 10° S
Atlas Centaur 2 2.3 10:14:56 21° SSW 10:16:31 28° SSE 10:19:41 10° E
SL-16 R/B 3.9 10:15:34 10° WNW 10:17:48 14° W 10:17:48 14° W
Cosmos 2322 4.2 10:15:21 10° NNW 10:20:59 63° ENE 10:26:35 10° SSE
Cosmos 1825 3.4 10:20:53 19° W 10:21:25 20° WNW 10:24:01 10° NNW
Cosmos 1975 Rocket 3.2 10:18:16 10° S 10:22:32 72° E 10:26:49 10° N
Nadezhda 3 Rocket 4.1 10:20:43 10° NNW 10:26:54 55° W 10:32:59 10° SSW
Cosmos 1892 4.4 10:29:09 13° W 10:29:42 14° WNW 10:31:35 10° NW
Thor Agena Rocket 3.6 10:25:26 10° N 10:30:38 69° WNW 10:35:51 10° SSW
Cosmos 2219 Rocket 2.3 10:25:53 10° NNW 10:31:25 56° WSW 10:36:56 10° S
YAOGAN 6 2.9 10:29:22 10° N 10:32:28 39° WNW 10:34:44 16° SW
SL-24 DEB 4.3 10:29:11 10° N 10:33:37 57° W 10:38:01 10° SSW
SL-16 R/B 3.7 10:32:03 13° SW 10:35:54 22° W 10:40:39 10° NW
Cosmos 2341 Rocket 4.0 10:30:10 10° S 10:36:26 77° W 10:42:41 10° N
OAO 3 Rocket 3.2 10:33:30 10° WNW 10:38:22 68° SSW 10:43:11 10° ESE
Cosmos 2360 Rocket 3.4 10:36:01 10° NW 10:40:08 21° W 10:44:14 10° SSW
DELTA 2 R/B (1) 3.6 10:35:03 10° WNW 10:40:37 87° NNE 10:46:10 10° ESE
COSMOS 2428 3.0 10:35:41 10° NNW 10:41:22 76° ENE 10:47:02 10° SSE
Cosmos 2366 rocket 4.1 10:36:24 10° S 10:42:44 86° W 10:49:08 10° N
Tiangong 0.1 10:41:00 10° WNW 10:43:18 19° NNW 10:45:38 10° NE
ATLAS 2AS CENTAUR R/B 2.6 10:38:49 10° NNW 10:45:31 77° WSW 10:52:03 10° SSE
Cosmos 1025 Rocket 4.2 10:42:30 12° SW 10:45:47 26° WNW 10:49:29 10° NNW
Geosat 4.1 10:41:21 10° S 10:46:12 51° WSW 10:51:05 10° NW
ASTEX 1 3.8 10:42:23 10° SSW 10:47:03 42° W 10:51:43 10° NNW
H-2A R/B 2.3 10:45:21 10° NNE 10:50:48 80° ESE 10:56:12 10° S
In-Cosmos 22 Rocket 4.2 10:46:19 10° SSW 10:51:41 66° W 10:57:14 10° N
Cosmos 1455 Rocket 3.1 10:49:44 10° NNW 10:54:04 63° W 10:58:24 10° S
Cosmos 2237 Rocket 4.1 10:49:42 10° N 10:54:52 35° ENE 10:59:59 10° SE
H-2A R/B 4.4 10:52:40 10° NE 10:55:28 28° E 10:58:15 10° SSE
Cosmos 371 Rocket 4.5 10:51:37 10° WSW 10:55:34 26° WNW 10:59:32 10° N
Cosmos 2227 Rocket 2.7 10:50:00 10° S 10:55:34 63° ESE 11:01:10 10° NNE
Cosmos 1606 3.8 11:01:18 10° N 11:04:42 44° E 11:08:05 10° SSE
